When you browse on this site, cookies collect data to enhance your experience and personalize the content and advertising you see.
Visit our Privacy Policy to learn more. By continuing to use the site, you agree to this use of cookies and data.
  • In Österreich
  • Länderverzeichnis
  • Für 7 Tage
  • Wassertemperatur
  • Satellitenkarten
  • Wetterkarte
  • News
  • Widgets
  • user-avatar
    Anmelden

    Stündliche Wetter Szczypiornia

    Heute, 16 Februar, Samstag

    Zeit Temperatur Niederschläge Wind Luftdruck Luftfeuchtigkeit
    00:00 +1°C° 0 mm 2 m/S 761 mmHg 96%
    01:00 +1°C° 0 mm 2 m/S 760 mmHg 96%
    02:00 +1°C° 0 mm 2 m/S 760 mmHg 95%
    03:00 +1°C° 0 mm 2 m/S 760 mmHg 95%
    04:00 +1°C° 0 mm 2 m/S 760 mmHg 94%
    05:00 +1°C° 0 mm 2 m/S 759 mmHg 93%
    06:00 +1°C° 0 mm 2 m/S 759 mmHg 92%
    07:00 -1°C° 0 mm 2 m/S 759 mmHg 89%
    08:00 +2°C° 0 mm 2 m/S 759 mmHg 82%
    09:00 +2°C° 0 mm 3 m/S 759 mmHg 75%
    10:00 +3°C° 0 mm 3 m/S 758 mmHg 68%
    11:00 +4°C° 0 mm 3 m/S 758 mmHg 65%
    12:00 +5°C° 0 mm 4 m/S 758 mmHg 61%
    13:00 +7°C° 0 mm 4 m/S 758 mmHg 57%
    14:00 +6°C° 0 mm 4 m/S 757 mmHg 59%
    15:00 +6°C° 0 mm 4 m/S 757 mmHg 60%
    16:00 +7°C° 0 mm 3 m/S 756 mmHg 62%
    17:00 +5°C° 0 mm 4 m/S 756 mmHg 63%
    18:00 +4°C° 0 mm 4 m/S 756 mmHg 65%
    19:00 +4°C° 0 mm 4 m/S 755 mmHg 66%
    20:00 +3°C° 0 mm 4 m/S 755 mmHg 69%
    21:00 +3°C° 0 mm 4 m/S 755 mmHg 71%
    22:00 +3°C° 0 mm 4 m/S 755 mmHg 74%
    23:00 +3°C° 0 mm 4 m/S 755 mmHg 78%

    Morgen, 17 Februar, Sonntag

    Zeit Temperatur Niederschläge Wind Luftdruck Luftfeuchtigkeit
    00:00 +1°C° 0 mm 4 m/S 755 mmHg 81%
    01:00 +1°C° 0 mm 4 m/S 755 mmHg 85%
    02:00 +1°C° 0 mm 4 m/S 755 mmHg 86%
    03:00 0°C° 0 mm 4 m/S 755 mmHg 88%
    04:00 +1°C° 0 mm 3 m/S 755 mmHg 89%
    05:00 +1°C° 0 mm 3 m/S 755 mmHg 90%
    06:00 +1°C° 0 mm 3 m/S 755 mmHg 91%
    07:00 0°C° 0 mm 4 m/S 755 mmHg 91%
    08:00 +1°C° 0 mm 4 m/S 755 mmHg 89%
    09:00 +3°C° 0 mm 4 m/S 755 mmHg 87%
    10:00 +3°C° 0 mm 5 m/S 756 mmHg 84%
    11:00 +4°C° 0 mm 4 m/S 756 mmHg 85%
    12:00 +4°C° 0 mm 4 m/S 756 mmHg 86%
    13:00 +5°C° 0 mm 4 m/S 756 mmHg 87%
    14:00 +4°C° 0 mm 4 m/S 756 mmHg 88%
    15:00 +4°C° 0 mm 3 m/S 756 mmHg 89%
    16:00 +4°C° 0 mm 3 m/S 756 mmHg 90%
    17:00 +5°C° 0 mm 2 m/S 756 mmHg 91%
    18:00 +4°C° 0 mm 2 m/S 756 mmHg 92%
    19:00 +4°C° 0 mm 2 m/S 756 mmHg 92%
    20:00 +5°C° 0 mm 1 m/S 756 mmHg 93%
    21:00 +5°C° 0 mm 1 m/S 756 mmHg 93%
    22:00 +4°C° 0 mm 1 m/S 756 mmHg 93%
    23:00 +4°C° 0 mm 1 m/S 756 mmHg 93%

    übermorgen, 18 Februar, Montag

    Zeit Temperatur Niederschläge Wind Luftdruck Luftfeuchtigkeit
    00:00 +4°C° 0 mm 1 m/S 756 mmHg 93%
    01:00 +3°C° 0 mm 0 m/S 757 mmHg 93%
    02:00 +3°C° 0 mm 1 m/S 756 mmHg 93%
    03:00 +3°C° 0 mm 1 m/S 756 mmHg 93%
    04:00 +3°C° 0 mm 1 m/S 756 mmHg 93%
    05:00 +3°C° 0 mm 1 m/S 756 mmHg 93%
    06:00 +3°C° 0 mm 1 m/S 756 mmHg 93%
    07:00 +2°C° 0 mm 2 m/S 756 mmHg 93%
    08:00 +3°C° 0 mm 2 m/S 756 mmHg 90%
    09:00 +3°C° 0 mm 3 m/S 756 mmHg 87%
    10:00 +4°C° 0 mm 3 m/S 756 mmHg 84%
    11:00 +5°C° 0 mm 3 m/S 756 mmHg 81%
    12:00 +6°C° 0 mm 4 m/S 755 mmHg 78%
    13:00 +7°C° 0 mm 4 m/S 755 mmHg 75%
    14:00 +7°C° 0 mm 4 m/S 755 mmHg 76%
    15:00 +8°C° 0 mm 3 m/S 754 mmHg 77%
    16:00 +7°C° 0 mm 3 m/S 754 mmHg 79%
    17:00 +7°C° 0 mm 3 m/S 754 mmHg 82%
    18:00 +5°C° 0 mm 3 m/S 754 mmHg 85%
    19:00 +4°C° 0 mm 3 m/S 754 mmHg 88%
    20:00 +3°C° 0 mm 3 m/S 753 mmHg 87%
    21:00 +3°C° 0 mm 3 m/S 753 mmHg 87%
    22:00 +2°C° 0 mm 3 m/S 753 mmHg 86%
    23:00 +2°C° 0 mm 3 m/S 753 mmHg 85%

    19 Februar, Dienstag

    Zeit Temperatur Niederschläge Wind Luftdruck Luftfeuchtigkeit
    00:00 +2°C° 0 mm 3 m/S 753 mmHg 84%
    01:00 +1°C° 0 mm 3 m/S 752 mmHg 83%
    02:00 +1°C° 0 mm 3 m/S 752 mmHg 84%
    03:00 +1°C° 0 mm 3 m/S 752 mmHg 85%
    04:00 0°C° 0 mm 3 m/S 751 mmHg 85%
    05:00 0°C° 0 mm 3 m/S 751 mmHg 86%
    06:00 0°C° 0 mm 3 m/S 751 mmHg 87%
    07:00 0°C° 0 mm 3 m/S 750 mmHg 88%
    08:00 0°C° 0 mm 4 m/S 750 mmHg 81%
    09:00 +3°C° 0 mm 4 m/S 750 mmHg 74%
    10:00 +3°C° 0 mm 5 m/S 750 mmHg 67%
    11:00 +5°C° 0 mm 5 m/S 750 mmHg 65%
    12:00 +6°C° 0 mm 5 m/S 749 mmHg 62%
    13:00 +8°C° 0 mm 5 m/S 749 mmHg 59%
    14:00 +7°C° 0 mm 5 m/S 748 mmHg 60%
    15:00 +7°C° 0 mm 5 m/S 748 mmHg 60%
    16:00 +7°C° 0 mm 5 m/S 748 mmHg 60%
    17:00 +7°C° 0 mm 5 m/S 748 mmHg 64%
    18:00 +6°C° 0 mm 5 m/S 748 mmHg 68%
    19:00 +6°C° 0 mm 5 m/S 748 mmHg 71%
    20:00 +5°C° 0.2 mm 5 m/S 748 mmHg 76%
    21:00 +5°C° 0.2 mm 5 m/S 748 mmHg 81%
    22:00 +3°C° 0.2 mm 5 m/S 748 mmHg 86%
    23:00 +3°C° 0 mm 5 m/S 749 mmHg 88%

    20 Februar, Mittwoch

    Zeit Temperatur Niederschläge Wind Luftdruck Luftfeuchtigkeit
    00:00 +2°C° 0 mm 5 m/S 749 mmHg 89%
    01:00 +2°C° 0 mm 5 m/S 749 mmHg 91%
    02:00 +2°C° 0 mm 6 m/S 749 mmHg 90%
    03:00 +2°C° 0 mm 6 m/S 749 mmHg 89%
    04:00 +1°C° 0 mm 6 m/S 749 mmHg 88%
    05:00 +1°C° 0 mm 6 m/S 750 mmHg 86%
    06:00 +1°C° 0 mm 6 m/S 750 mmHg 85%
    07:00 +1°C° 0 mm 6 m/S 750 mmHg 84%
    08:00 +2°C° 0 mm 7 m/S 751 mmHg 79%
    09:00 +2°C° 0 mm 7 m/S 751 mmHg 75%
    10:00 +2°C° 0 mm 8 m/S 752 mmHg 71%
    11:00 +2°C° 0 mm 8 m/S 752 mmHg 71%
    12:00 +2°C° 0 mm 8 m/S 752 mmHg 70%
    13:00 +3°C° 0 mm 7 m/S 752 mmHg 70%
    14:00 +3°C° 0 mm 7 m/S 752 mmHg 71%
    15:00 +3°C° 0 mm 6 m/S 753 mmHg 72%
    16:00 +3°C° 0 mm 6 m/S 753 mmHg 73%
    17:00 +2°C° 0 mm 6 m/S 753 mmHg 75%
    18:00 +2°C° 0 mm 5 m/S 753 mmHg 77%
    19:00 +2°C° 0 mm 5 m/S 754 mmHg 79%
    20:00 +2°C° 0 mm 5 m/S 754 mmHg 80%
    21:00 +3°C° 0 mm 4 m/S 754 mmHg 81%
    22:00 +3°C° 0 mm 4 m/S 754 mmHg 83%
    23:00 +3°C° 0 mm 3 m/S 754 mmHg 86%

    21 Februar, Donnerstag

    Zeit Temperatur Niederschläge Wind Luftdruck Luftfeuchtigkeit
    00:00 +2°C° 0 mm 3 m/S 754 mmHg 90%
    01:00 +2°C° 0 mm 3 m/S 754 mmHg 94%
    02:00 +2°C° 0.2 mm 3 m/S 754 mmHg 95%
    03:00 +2°C° 0.2 mm 3 m/S 754 mmHg 96%
    04:00 +4°C° 0.2 mm 2 m/S 754 mmHg 97%
    05:00 +3°C° 0.5 mm 3 m/S 754 mmHg 96%
    06:00 +3°C° 0.5 mm 3 m/S 754 mmHg 96%
    07:00 +3°C° 0.5 mm 4 m/S 754 mmHg 96%
    08:00 +3°C° 0.5 mm 4 m/S 755 mmHg 96%
    09:00 +3°C° 0.5 mm 4 m/S 755 mmHg 95%
    10:00 +4°C° 0.5 mm 4 m/S 755 mmHg 94%
    11:00 +4°C° 0.1 mm 4 m/S 755 mmHg 91%
    12:00 +5°C° 0.1 mm 4 m/S 755 mmHg 87%
    13:00 +6°C° 0.1 mm 4 m/S 754 mmHg 84%
    14:00 +6°C° 0 mm 4 m/S 754 mmHg 84%
    15:00 +5°C° 0 mm 3 m/S 754 mmHg 84%
    16:00 +5°C° 0 mm 3 m/S 754 mmHg 83%
    17:00 +6°C° 0.1 mm 2 m/S 753 mmHg 87%
    18:00 +5°C° 0.1 mm 2 m/S 753 mmHg 90%
    19:00 +5°C° 0.1 mm 2 m/S 753 mmHg 93%
    20:00 +5°C° 0.1 mm 2 m/S 753 mmHg 94%
    21:00 +5°C° 0.1 mm 2 m/S 753 mmHg 95%
    22:00 +4°C° 0.1 mm 2 m/S 753 mmHg 96%
    23:00 +4°C° 0.1 mm 2 m/S 753 mmHg 97%
    Mehr zeigen